Hourly Data Report for October 19, 2016

All times are specified in Local Standard Time (LST). Add 1 hour to adjust for Daylight Saving Time where and when it is observed.

RANKIN INLET A
NUNAVUT

62°48'38.000" N
92°06'53.000" W
32.30 m
2303405
71083
YRT

Download Data

Hourly Data (October 2016)
Hourly Data Report for October 19, 2016
Temp Definition
°C
Dew Point Temp Definition
°C
Rel Hum Definition
%
Wind Dir Definition
10's deg

Wind Spd Definition
km/h
Visibility Definition
km
Stn Press Definition
kPa
Hmdx Definition


Wind Chill Definition


Weather Definition


TIME
00:00 Legend Double Dagger -2.4 -5.1 82 7 17 24.1 101.79   -8 Cloudy
01:00 Legend Double Dagger -2.5 -5.3 81 6 17 24.1 101.82   -8 LegendNANA
02:00 Legend Double Dagger -2.5 -5.5 80 5 18 24.1 101.85   -8 LegendNANA
03:00 Legend Double Dagger -2.4 -5.6 79 6 16 24.1 101.85   -8 Cloudy
04:00 Legend Double Dagger -2.5 -5.3 81 4 11 24.1 101.85   -7 LegendNANA
05:00 Legend Double Dagger -1.9 -5.2 78 7 12 24.1 101.87   -6 LegendNANA
06:00 Legend Double Dagger -2.5 -5.2 82 2 10 24.1 101.90   -6 Cloudy
07:00 Legend Double Dagger -2.5 -5.0 83 2 8 24.1 101.92   -6 LegendNANA
08:00 Legend Double Dagger -2.5 -5.2 82 1 10 24.1 101.92   -6 LegendNANA
09:00 Legend Double Dagger -2.3 -4.5 85 1 7 24.1 101.92   -5 Cloudy
10:00 Legend Double Dagger -1.9 -4.7 81 6 4 24.1 101.92   -3 LegendNANA
11:00 Legend Double Dagger -1.2 -4.6 78 29 5 24.1 101.90   -3 LegendNANA
12:00 Legend Double Dagger -0.7 -5.0 73 22 12 24.1 101.87   -5 Mostly Cloudy
13:00 Legend Double Dagger -0.6 -5.0 72 22 17 24.1 101.90   -6 LegendNANA
14:00 Legend Double Dagger -0.4 -4.5 74 23 21 24.1 101.89   -6 LegendNANA
15:00 Legend Double Dagger -0.6 -4.5 75 24 28 24.1 101.87   -7 Mostly Cloudy
16:00 Legend Double Dagger -0.8 -3.7 81 23 27 24.1 101.86   -7 LegendNANA
17:00 Legend Double Dagger -0.9 -3.4 83 23 29 24.1 101.82   -8 LegendNANA
18:00 Legend Double Dagger -0.8 -3.2 84 23 30 24.1 101.83   -8 Cloudy
19:00 Legend Double Dagger -0.5 -3.2 82 23 32 24.1 101.79   -7 LegendNANA
20:00 Legend Double Dagger -0.5 -3.5 80 23 33 24.1 101.72   -7 LegendNANA
21:00 Legend Double Dagger -0.8 -3.8 80 24 32 24.1 101.67   -8 Cloudy
22:00 Legend Double Dagger -1.0 -4.4 78 24 35 24.1 101.63   -8 LegendNANA
23:00 Legend Double Dagger -1.2 -4.4 79 24 36 24.1 101.59   -9 LegendNANA

Notes on Data Quality.

Legend

  • E = Estimated
  • M = Missing
  • NA = Not Available
  • ‡ = Partner data that is not subject to review by the National Climate Archives
Date modified: